Change the Weather History Date:

Saturday, June 15, 2013

  Actual Average Record
Temperature  
Mean Temperature 76 °F -  
Max Temperature 83 °F 84 °F 103 °F (1979)
Min Temperature 69 °F 60 °F 46 °F (1969)
Cooling Degree Days 11    
Growing Degree Days 26 (Base 50)    
Moisture  
Dew Point 62 °F    
Average Humidity 62    
Maximum Humidity 89    
Minimum Humidity 42    
Precipitation  
Precipitation 0.18 in - - ()
Sea Level Pressure  
Sea Level Pressure 29.91 in    
Wind  
Wind Speed 8 mph (South)    
Max Wind Speed 16 mph    
Max Gust Speed 26 mph    
Visibility 10 miles    
Events Rain    
Averages and records for this station are not official NWS values.
T = Trace of Precipitation, MM = Missing Value Source: NWS Daily Summary

Daily Weather History Graph

Daily Weather History Graph

Search for Another Location

Airport or City:

Trip Planner

Search our weather history database for the weather conditions in past years. The results will help you decide how hot, cold, wet, or windy it might be!

Date:

Astronomy

Jun. 15, 2013 Rise Set
Actual Time 6:00 AM CDT 9:01 PM CDT
Civil Twilight 5:27 AM CDT 9:34 PM CDT
Nautical Twilight 4:45 AM CDT 10:16 PM CDT
Astronomical Twilight 3:56 AM CDT 11:05 PM CDT
Moon 12:36 PM CDT (6/15) 12:37 AM CDT (6/15)
Length of Visible Light 16h 06m
Length of Day
15h 01m
Waxing Crescent, 40% of the Moon is Illuminated
Jun 15
Waxing Crescent
Jun 16
First Quarter
Jun 23
Full
Jun 29
Last Quarter
Jul 8
New

Hourly Weather History & Observations

Time (CDT) Temp. Heat Index Dew Point Humidity Pressure Visibility Wind Dir Wind Speed Gust Speed Precip Events Conditions
12:15 AM 82.0 °F 82.0 °F 57.9 °F 44% 29.84 in 10.0 mi SSW 9.2 mph - N/A   Clear
12:35 AM 82.4 °F 82.0 °F 57.4 °F 42% 29.83 in 10.0 mi South 9.2 mph - N/A   Clear
12:55 AM 80.8 °F 81.1 °F 58.1 °F 46% 29.84 in 10.0 mi South 8.1 mph - N/A   Clear
1:15 AM 80.6 °F 80.9 °F 58.1 °F 46% 29.86 in 10.0 mi South 5.8 mph - N/A   Clear
1:35 AM 77.4 °F - 59.4 °F 54% 29.88 in 10.0 mi North 5.8 mph - N/A   Clear
1:55 AM 75.2 °F - 59.7 °F 58% 29.87 in 10.0 mi South 5.8 mph - N/A   Clear
2:15 AM 75.6 °F - 59.5 °F 57% 29.85 in 10.0 mi South 8.1 mph - N/A   Clear
2:35 AM 75.9 °F - 59.4 °F 56% 29.85 in 10.0 mi South 10.4 mph - N/A   Clear
2:55 AM 75.2 °F - 59.5 °F 58% 29.85 in 10.0 mi SSW 10.4 mph - N/A   Clear
3:15 AM 76.8 °F - 59.2 °F 54% 29.85 in 10.0 mi SSW 12.7 mph - N/A   Clear
3:35 AM 77.9 °F - 58.5 °F 51% 29.85 in 10.0 mi SSW 10.4 mph - N/A   Clear
3:55 AM 78.1 °F - 58.1 °F 50% 29.85 in 10.0 mi SSW 12.7 mph - N/A   Clear
4:15 AM 77.4 °F - 57.6 °F 50% 29.85 in 10.0 mi SSW 10.4 mph - N/A   Clear
4:35 AM 76.8 °F - 57.7 °F 52% 29.86 in 10.0 mi SSW 8.1 mph - N/A   Clear
4:55 AM 75.4 °F - 57.7 °F 54% 29.85 in 10.0 mi SSW 5.8 mph - N/A   Clear
5:15 AM 74.7 °F - 57.4 °F 55% 29.86 in 10.0 mi SSW 6.9 mph - N/A   Clear
5:35 AM 74.7 °F - 57.0 °F 54% 29.87 in 10.0 mi SSW 8.1 mph - N/A   Clear
5:55 AM 75.6 °F - 56.5 °F 51% 29.88 in 10.0 mi SSW 5.8 mph - N/A   Clear
6:15 AM 74.3 °F - 57.2 °F 55% 29.90 in 10.0 mi South 6.9 mph - N/A   Clear
6:35 AM 73.4 °F - 57.4 °F 57% 29.91 in 10.0 mi South 6.9 mph - N/A   Clear
6:55 AM 73.8 °F - 56.5 °F 55% 29.92 in 10.0 mi SSW 6.9 mph - N/A   Clear
7:15 AM 74.3 °F - 56.3 °F 53% 29.93 in 10.0 mi Calm Calm - N/A   Clear
7:35 AM 74.3 °F - 57.6 °F 56% 29.93 in 10.0 mi Calm Calm - N/A   Clear
7:55 AM 75.0 °F - 58.5 °F 56% 29.93 in 10.0 mi SW 3.5 mph - N/A   Clear
8:15 AM 76.1 °F - 57.6 °F 53% 29.93 in 10.0 mi Calm Calm - N/A   Clear
8:35 AM 77.7 °F - 58.3 °F 51% 29.93 in 10.0 mi South 3.5 mph - N/A   Clear
8:55 AM 80.1 °F 80.5 °F 57.7 °F 46% 29.94 in 10.0 mi SSW 5.8 mph - N/A   Scattered Clouds
9:15 AM 80.8 °F 81.1 °F 58.1 °F 46% 29.94 in 10.0 mi SW 5.8 mph - N/A   Scattered Clouds
9:35 AM 81.5 °F 81.7 °F 58.8 °F 46% 29.96 in 10.0 mi SW 9.2 mph - N/A   Clear
9:55 AM 80.2 °F 80.6 °F 57.9 °F 46% 29.97 in 10.0 mi WSW 9.2 mph 16.1 mph N/A   Clear
10:15 AM 80.1 °F 80.7 °F 59.0 °F 48% 29.97 in 10.0 mi West 6.9 mph - N/A   Clear
10:35 AM 79.9 °F - 59.5 °F 50% 29.96 in 10.0 mi West 8.1 mph - N/A   Clear
10:55 AM 79.3 °F - 60.6 °F 53% 29.97 in 10.0 mi West 9.2 mph - N/A   Clear
11:15 AM 78.6 °F - 60.3 °F 53% 29.98 in 10.0 mi West 8.1 mph - N/A Rain Light Rain
11:35 AM 77.4 °F - 60.6 °F 56% 29.99 in 10.0 mi WSW 16.1 mph 26.5 mph N/A Rain Light Rain
11:55 AM 74.1 °F - 61.7 °F 65% 30.00 in 10.0 mi SW 15.0 mph 21.9 mph N/A Rain Light Rain
12:15 PM 70.7 °F - 63.1 °F 77% 30.00 in 5.0 mi SW 11.5 mph 19.6 mph 0.03 in Rain Rain
12:35 PM 69.6 °F - 64.2 °F 83% 30.00 in 4.0 mi SW 8.1 mph 18.4 mph 0.12 in Rain Heavy Rain
12:55 PM 70.7 °F - 63.5 °F 78% 29.96 in 10.0 mi SSE 10.4 mph - 0.17 in Rain Light Rain
1:15 PM 71.2 °F - 64.4 °F 79% 29.94 in 10.0 mi SSE 9.2 mph - N/A Rain Light Rain
1:35 PM 71.2 °F - 65.3 °F 81% 29.93 in 10.0 mi SSE 9.2 mph - 0.01 in   Overcast
1:55 PM 72.0 °F - 66.0 °F 81% 29.93 in 10.0 mi South 5.8 mph - 0.01 in   Mostly Cloudy
2:15 PM 73.2 °F - 66.9 °F 81% 29.93 in 10.0 mi WNW 3.5 mph - N/A   Mostly Cloudy
2:35 PM 73.9 °F - 66.9 °F 79% 29.92 in 10.0 mi Calm Calm - N/A   Overcast
2:55 PM 74.8 °F - 67.5 °F 78% 29.92 in 10.0 mi Calm Calm - N/A   Overcast
3:15 PM 75.9 °F - 65.1 °F 69% 29.91 in 10.0 mi SSW 4.6 mph - N/A   Overcast
3:35 PM 78.4 °F - 67.1 °F 68% 29.90 in 10.0 mi South 6.9 mph - N/A   Scattered Clouds
3:55 PM 79.3 °F - 67.6 °F 67% 29.89 in 10.0 mi South 8.1 mph - N/A   Scattered Clouds
4:15 PM 81.1 °F 83.9 °F 68.0 °F 64% 29.89 in 10.0 mi South 11.5 mph - N/A   Clear
4:35 PM 81.7 °F 84.2 °F 67.3 °F 61% 29.89 in 10.0 mi South 10.4 mph 17.3 mph N/A   Clear
4:55 PM 82.0 °F 84.9 °F 67.6 °F 62% 29.90 in 10.0 mi South 11.5 mph - N/A   Clear
5:15 PM 82.4 °F 85.0 °F 67.3 °F 60% 29.89 in 10.0 mi South 9.2 mph - N/A   Clear
5:35 PM 82.6 °F 85.3 °F 67.5 °F 60% 29.89 in 10.0 mi South 8.1 mph - N/A   Scattered Clouds
5:55 PM 83.3 °F 85.7 °F 66.7 °F 57% 29.89 in 10.0 mi SSW 3.5 mph - N/A   Scattered Clouds
6:15 PM 83.1 °F 85.7 °F 66.7 °F 58% 29.88 in 10.0 mi South 8.1 mph - N/A   Clear
6:35 PM 82.9 °F 85.2 °F 66.2 °F 57% 29.87 in 10.0 mi SSE 3.5 mph - N/A   Clear
6:55 PM 83.1 °F 85.4 °F 66.2 °F 57% 29.87 in 10.0 mi SSE 4.6 mph - N/A   Clear
7:15 PM 83.3 °F 85.5 °F 66.2 °F 56% 29.87 in 10.0 mi SSE 4.6 mph - N/A   Clear
7:35 PM 83.3 °F 85.7 °F 66.4 °F 57% 29.88 in 10.0 mi SE 5.8 mph - N/A   Clear
7:55 PM 82.8 °F 85.5 °F 67.8 °F 60% 29.88 in 10.0 mi SSE 9.2 mph - N/A   Clear
8:15 PM 80.6 °F 83.4 °F 68.2 °F 66% 29.89 in 10.0 mi SE 10.4 mph - N/A   Clear
8:35 PM 79.0 °F - 68.0 °F 69% 29.89 in 10.0 mi SE 10.4 mph - N/A   Clear
8:55 PM 77.0 °F - 67.6 °F 73% 29.89 in 10.0 mi ESE 6.9 mph - N/A   Clear
9:15 PM 75.4 °F - 67.1 °F 75% 29.90 in 10.0 mi ESE 6.9 mph - N/A   Clear
9:35 PM 74.3 °F - 66.9 °F 78% 29.91 in 10.0 mi ESE 3.5 mph - N/A   Clear
9:55 PM 73.6 °F - 66.7 °F 79% 29.92 in 10.0 mi East 3.5 mph - N/A   Clear
10:15 PM 72.5 °F - 66.7 °F 82% 29.93 in 10.0 mi East 4.6 mph - N/A   Clear
10:35 PM 71.4 °F - 66.7 °F 85% 29.93 in 10.0 mi East 3.5 mph - N/A   Clear
10:55 PM 71.2 °F - 66.6 °F 85% 29.94 in 10.0 mi NE 3.5 mph - N/A   Clear
11:15 PM 70.9 °F - 66.7 °F 87% 29.96 in 10.0 mi ENE 4.6 mph - N/A   Clear
11:35 PM 70.7 °F - 66.9 °F 88% 29.95 in 10.0 mi East 5.8 mph - N/A   Clear
11:55 PM 70.3 °F - 67.1 °F 89% 29.94 in 10.0 mi East 5.8 mph - N/A   Clear